Location: Newark
(42.8481°N, 0.4872°E)
Time: 18:27:35
(UTC+00:00)

Vanguard 2 - Pass Details

Date: 04 November 2020
Orbit: 554 x 2937 km, 32.9° (Epoch: 24 November)

Event Time Altitude Azimuth Distance (km) Brightness Sun altitude
Rises 22:09:59 0° 273° (W) 5,604 12.3 -56.6°
Reaches altitude 10° 22:13:32 10° 267° (W) 4,878 11.8 -57.0°
Enters shadow 22:18:59 27° 251° (WSW) 3,994 11.1 -57.6°
Maximum altitude 22:27:06 43° 203° (SSW) 3,567 - -58.5°
Drops below altitude 10° 22:43:11 10° 140° (SE) 5,699 - -60.1°
Sets 22:47:46 0° 134° (SE) 6,591 - -60.5°
